• In Belarus
  • List of Countries
  • For 7 days
  • Water Temperature
  • Satellite Maps
  • Weather Map
  • Weather Widgets
  • user-avatar
    Login

    Hourly Weather Adelaide

    Today, 13 December, Wednesday

    Time Temperature Precipitation Wind Pressure Humidity
    00:00 +28°C° 0 mm 4 mps 752 mmHg 29%
    01:00 +28°C° 0 mm 4 mps 751 mmHg 27%
    02:00 +28°C° 0 mm 4 mps 751 mmHg 26%
    03:00 +28°C° 0 mm 5 mps 750 mmHg 23%
    04:00 +29°C° 0 mm 5 mps 750 mmHg 22%
    05:00 +30°C° 0 mm 5 mps 750 mmHg 20%
    06:00 +32°C° 0 mm 6 mps 750 mmHg 19%
    07:00 +34°C° 0 mm 6 mps 750 mmHg 17%
    08:00 +36°C° 0 mm 7 mps 750 mmHg 15%
    09:00 +40°C° 0 mm 7 mps 749 mmHg 13%
    10:00 +40°C° 0 mm 7 mps 749 mmHg 13%
    11:00 +40°C° 0 mm 8 mps 749 mmHg 14%
    12:00 +40°C° 0 mm 8 mps 749 mmHg 14%
    13:00 +38°C° 0 mm 7 mps 749 mmHg 21%
    14:00 +34°C° 0 mm 7 mps 749 mmHg 27%
    15:00 +30°C° 0 mm 5 mps 749 mmHg 36%
    16:00 +30°C° 0 mm 5 mps 749 mmHg 40%
    17:00 +29°C° 0 mm 5 mps 750 mmHg 44%
    18:00 +28°C° 0 mm 5 mps 750 mmHg 48%
    19:00 +27°C° 0 mm 5 mps 750 mmHg 53%
    20:00 +25°C° 0 mm 5 mps 751 mmHg 58%
    21:00 +23°C° 0 mm 5 mps 751 mmHg 64%
    22:00 +22°C° 0 mm 5 mps 751 mmHg 68%
    23:00 +22°C° 0 mm 4 mps 751 mmHg 73%

    Tomorrow, 14 December, Thursday

    Time Temperature Precipitation Wind Pressure Humidity
    00:00 +21°C° 0 mm 4 mps 752 mmHg 77%
    01:00 +20°C° 0 mm 4 mps 752 mmHg 80%
    02:00 +20°C° 0 mm 4 mps 752 mmHg 82%
    03:00 +19°C° 0 mm 4 mps 752 mmHg 85%
    04:00 +19°C° 0 mm 4 mps 752 mmHg 83%
    05:00 +19°C° 0 mm 4 mps 753 mmHg 80%
    06:00 +20°C° 0 mm 5 mps 754 mmHg 78%
    07:00 +20°C° 0 mm 4 mps 754 mmHg 75%
    08:00 +20°C° 0 mm 4 mps 755 mmHg 71%
    09:00 +20°C° 0 mm 4 mps 755 mmHg 68%
    10:00 +21°C° 0 mm 4 mps 755 mmHg 62%
    11:00 +22°C° 0 mm 4 mps 755 mmHg 56%
    12:00 +23°C° 0 mm 4 mps 755 mmHg 51%
    13:00 +23°C° 0 mm 4 mps 755 mmHg 49%
    14:00 +23°C° 0 mm 4 mps 755 mmHg 47%
    15:00 +23°C° 0 mm 4 mps 755 mmHg 46%
    16:00 +23°C° 0 mm 4 mps 755 mmHg 49%
    17:00 +22°C° 0 mm 4 mps 755 mmHg 52%
    18:00 +21°C° 0 mm 4 mps 755 mmHg 55%
    19:00 +20°C° 0 mm 4 mps 756 mmHg 59%
    20:00 +19°C° 0 mm 4 mps 756 mmHg 63%
    21:00 +18°C° 0 mm 4 mps 757 mmHg 68%
    22:00 +17°C° 0 mm 3 mps 756 mmHg 70%
    23:00 +17°C° 0 mm 3 mps 756 mmHg 71%

    Day after tomorrow, 15 December, Friday

    Time Temperature Precipitation Wind Pressure Humidity
    00:00 +16°C° 0 mm 2 mps 756 mmHg 73%
    01:00 +16°C° 0 mm 2 mps 756 mmHg 75%
    02:00 +15°C° 0 mm 2 mps 756 mmHg 76%
    03:00 +15°C° 0 mm 2 mps 755 mmHg 78%
    04:00 +16°C° 0 mm 1 mps 756 mmHg 75%
    05:00 +16°C° 0 mm 1 mps 756 mmHg 72%
    06:00 +18°C° 0 mm 1 mps 756 mmHg 69%
    07:00 +20°C° 0 mm 1 mps 756 mmHg 60%
    08:00 +22°C° 0 mm 1 mps 756 mmHg 50%
    09:00 +24°C° 0 mm 1 mps 756 mmHg 41%
    10:00 +25°C° 0 mm 1 mps 756 mmHg 38%
    11:00 +26°C° 0 mm 2 mps 755 mmHg 35%
    12:00 +27°C° 0 mm 3 mps 755 mmHg 33%
    13:00 +27°C° 0 mm 3 mps 755 mmHg 32%
    14:00 +27°C° 0 mm 4 mps 754 mmHg 32%
    15:00 +27°C° 0 mm 4 mps 754 mmHg 32%
    16:00 +26°C° 0 mm 4 mps 754 mmHg 34%
    17:00 +25°C° 0 mm 4 mps 754 mmHg 37%
    18:00 +23°C° 0 mm 4 mps 755 mmHg 40%
    19:00 +22°C° 0 mm 4 mps 755 mmHg 45%
    20:00 +21°C° 0 mm 3 mps 756 mmHg 50%
    21:00 +19°C° 0 mm 3 mps 756 mmHg 55%
    22:00 +19°C° 0 mm 3 mps 756 mmHg 58%
    23:00 +18°C° 0 mm 3 mps 756 mmHg 62%

    16 December, Saturday

    Time Temperature Precipitation Wind Pressure Humidity
    00:00 +18°C° 0 mm 2 mps 756 mmHg 66%
    01:00 +17°C° 0 mm 2 mps 756 mmHg 70%
    02:00 +17°C° 0 mm 2 mps 756 mmHg 73%
    03:00 +17°C° 0 mm 2 mps 756 mmHg 77%
    04:00 +17°C° 0 mm 2 mps 756 mmHg 76%
    05:00 +18°C° 0 mm 2 mps 757 mmHg 75%
    06:00 +18°C° 0 mm 2 mps 757 mmHg 74%
    07:00 +21°C° 0 mm 1 mps 757 mmHg 65%
    08:00 +23°C° 0 mm 1 mps 757 mmHg 55%
    09:00 +25°C° 0 mm 1 mps 757 mmHg 46%
    10:00 +27°C° 0 mm 2 mps 757 mmHg 41%
    11:00 +28°C° 0 mm 2 mps 757 mmHg 37%
    12:00 +30°C° 0 mm 2 mps 757 mmHg 33%
    13:00 +29°C° 0 mm 3 mps 756 mmHg 34%
    14:00 +29°C° 0 mm 4 mps 756 mmHg 35%
    15:00 +29°C° 0 mm 5 mps 756 mmHg 36%
    16:00 +28°C° 0 mm 5 mps 756 mmHg 41%
    17:00 +26°C° 0 mm 5 mps 756 mmHg 45%
    18:00 +25°C° 0 mm 5 mps 756 mmHg 50%
    19:00 +23°C° 0 mm 5 mps 756 mmHg 54%
    20:00 +22°C° 0 mm 5 mps 757 mmHg 59%
    21:00 +20°C° 0 mm 5 mps 757 mmHg 63%
    22:00 +20°C° 0 mm 5 mps 757 mmHg 64%
    23:00 +19°C° 0 mm 4 mps 756 mmHg 65%

    17 December, Sunday

    Time Temperature Precipitation Wind Pressure Humidity
    00:00 +19°C° 0 mm 4 mps 756 mmHg 66%
    01:00 +19°C° 0 mm 4 mps 755 mmHg 65%
    02:00 +19°C° 0 mm 3 mps 755 mmHg 65%
    03:00 +19°C° 0 mm 3 mps 754 mmHg 64%
    04:00 +19°C° 0 mm 3 mps 754 mmHg 62%
    05:00 +20°C° 0 mm 3 mps 754 mmHg 59%
    06:00 +21°C° 0 mm 4 mps 754 mmHg 56%
    07:00 +25°C° 0 mm 4 mps 754 mmHg 49%
    08:00 +27°C° 0 mm 4 mps 754 mmHg 42%
    09:00 +29°C° 0 mm 4 mps 754 mmHg 35%
    10:00 +31°C° 0 mm 3 mps 754 mmHg 30%
    11:00 +34°C° 0 mm 3 mps 753 mmHg 26%
    12:00 +36°C° 0 mm 2 mps 753 mmHg 21%
    13:00 +37°C° 0 mm 3 mps 752 mmHg 20%
    14:00 +37°C° 0 mm 4 mps 751 mmHg 19%
    15:00 +37°C° 0 mm 4 mps 751 mmHg 18%
    16:00 +37°C° 0 mm 4 mps 750 mmHg 19%
    17:00 +36°C° 0 mm 3 mps 750 mmHg 20%
    18:00 +36°C° 0 mm 2 mps 750 mmHg 21%
    19:00 +35°C° 0 mm 2 mps 750 mmHg 22%
    20:00 +34°C° 0 mm 2 mps 750 mmHg 23%
    21:00 +33°C° 0 mm 3 mps 750 mmHg 24%
    22:00 +33°C° 0.1 mm 3 mps 750 mmHg 25%
    23:00 +31°C° 0.1 mm 3 mps 750 mmHg 25%

    18 December, Monday

    Time Temperature Precipitation Wind Pressure Humidity
    00:00 +31°C° 0.1 mm 3 mps 750 mmHg 26%
    01:00 +30°C° 0.7 mm 3 mps 750 mmHg 35%
    02:00 +28°C° 0.7 mm 4 mps 749 mmHg 43%
    03:00 +27°C° 0.7 mm 5 mps 749 mmHg 52%
    04:00 +28°C° 0.3 mm 4 mps 749 mmHg 52%
    05:00 +28°C° 0.3 mm 3 mps 749 mmHg 52%
    06:00 +28°C° 0.3 mm 3 mps 749 mmHg 52%
    07:00 +29°C° 0.2 mm 3 mps 749 mmHg 49%
    08:00 +30°C° 0.2 mm 4 mps 749 mmHg 46%
    09:00 +32°C° 0.2 mm 5 mps 749 mmHg 42%
    10:00 +34°C° 0 mm 5 mps 748 mmHg 35%
    11:00 +37°C° 0 mm 5 mps 747 mmHg 27%
    12:00 +41°C° 0 mm 4 mps 746 mmHg 19%
    13:00 +40°C° 0.1 mm 4 mps 744 mmHg 19%
    14:00 +39°C° 0.1 mm 3 mps 743 mmHg 20%
    15:00 +39°C° 0.1 mm 2 mps 742 mmHg 21%
    16:00 +36°C° 1.7 mm 3 mps 742 mmHg 36%
    17:00 +32°C° 1.7 mm 4 mps 743 mmHg 51%
    18:00 +28°C° 1.7 mm 5 mps 744 mmHg 66%
    19:00 +27°C° 1.6 mm 6 mps 745 mmHg 68%
    20:00 +27°C° 1.6 mm 6 mps 746 mmHg 71%
    21:00 +27°C° 1.6 mm 6 mps 746 mmHg 73%
    22:00 +26°C° 0.9 mm 6 mps 746 mmHg 74%
    23:00 +25°C° 0.9 mm 5 mps 746 mmHg 75%
    Show more